Location: Bonn
(50.7330°N, 7.1000°E)
Time: 00:32:21
(UTC+02:00)

Iridium 67 - Visible Passes

Search period start: 24 May 2017 00:00
Search period end: 03 June 2017 00:00
Orbit: 776 x 779 km, 86.4° (Epoch: 22 May)

Date Brightness Start Highest point End Pass type
(mag) Time Alt. Az. Time Alt. Az. Time Alt. Az.
24 May 5.5 01:22:47 34° SSW 01:25:07 80° W 01:30:23 10° N visible
24 May 7.7 03:04:13 10° W 03:06:47 14° WNW 03:09:21 10° NW visible
25 May 5.7 00:49:14 31° SSE 00:51:37 62° E 00:56:46 10° N visible
25 May 7.3 02:29:41 14° WSW 02:32:48 22° WNW 02:36:49 10° NNW visible
26 May 6.4 00:15:41 23° SE 00:18:13 37° E 00:22:59 10° NNE visible
26 May 6.6 01:56:08 21° SW 01:58:57 35° WNW 02:03:45 10° N visible
26 May 7.1 23:42:07 15° ESE 23:44:56 23° ENE 23:48:56 10° NNE visible
27 May 5.9 01:22:35 28° SSW 01:25:15 59° W 01:30:26 10° N visible
27 May 7.6 23:09:17 10° ESE 23:11:47 14° ENE 23:14:18 10° NE visible
28 May 5.5 00:49:00 30° S 00:51:40 84° E 00:56:55 10° N visible
28 May 7.6 02:29:52 10° WSW 02:33:08 17° WNW 02:36:25 10° NNW visible
29 May 5.9 00:15:26 25° SSE 00:18:12 50° E 00:23:15 10° NNE visible
29 May 7.1 01:55:53 15° WSW 01:59:12 26° WNW 02:03:35 10° NNW visible
29 May 6.7 23:41:51 17° SE 23:44:51 30° E 23:49:22 10° NNE visible
30 May 6.3 01:22:18 21° SW 01:25:26 43° WNW 01:30:24 10° N visible
30 May 7.3 23:08:15 11° ESE 23:11:38 19° ENE 23:15:09 10° NNE visible
31 May 5.6 00:48:43 25° SSW 00:51:45 72° W 00:57:00 10° N visible
31 May 7.9 02:31:27 10° W 02:33:31 12° WNW 02:35:35 10° NW visible
31 May 7.7 22:37:09 10° E 22:38:31 11° ENE 22:39:53 10° NE visible
01 Jun 5.6 00:15:07 24° SSE 00:18:13 69° E 00:23:26 10° N visible
01 Jun 7.5 01:55:43 10° WSW 01:59:30 20° WNW 02:03:18 10° NNW visible
01 Jun 6.2 23:41:30 19° SE 23:44:48 41° E 23:49:40 10° NNE visible
02 Jun 6.8 01:21:58 15° SW 01:25:38 32° WNW 01:30:18 10° NNW visible
02 Jun 6.9 23:07:53 12° SE 23:11:29 25° E 23:15:41 10° NNE visible
